カタログに戻る

OPTICUBE 04

運用中科学PO
NORAD 41851·PAYLOAD·🇺🇸 United States

打ち上げ Nov 11, 2016 から Vandenberg Space Force Base

Loading…

次のパス (今後24時間)

TLE

最新Source: Space-Track

元期: Sep 14, 2026, 13:10 UTC

1 41851U 16067D   26257.54922661  .00001757  00000-0  11235-3 0  9991
2 41851  98.0585 114.4718 0015594 169.9859 190.1683 15.09971304538657

AllMySatでOPTICUBE 04をリアルタイム追跡

Download on the App Store